Torna al catalogo

CZ-4 DEB

AttivoSSO
NORAD 26442·DEBRIS·🇨🇳 China

Lanciato Oct 14, 1999 da Taiyuan Satellite Launch Center

Loading…

Prossimi Passaggi (prossime 24 ore)

TLE

AggiornatoSource: Space-Track

Epoca: Sep 13, 2026, 18:15 UTC

1 26442U 99057KP  26256.76043662  .00001084  00000-0  22436-3 0  9996
2 26442  98.5405 277.2163 0053593 297.8822 114.5119 14.61595016393940

Traccia CZ-4 DEB in tempo reale con AllMySat

Download on the App Store